Location: Carrières
(48.9495°N, 2.0407°E)
Time: 04:32:07
(UTC+00:00)

Vanguard 2 Rocket - Pass Details

Date: 13 April 2024
Orbit: 556 x 3304 km, 32.9° (Epoch: 17 May)

Event Time Altitude Azimuth Distance (km) Brightness Sun altitude
Rises 22:17:46 0° 218° (SW) 6,917 11.2 -28.0°
Reaches altitude 10° 22:22:52 10° 210° (SSW) 6,100 10.8 -28.4°
Enters shadow 22:28:33 21° 198° (SSW) 5,306 10.3 -28.7°
Maximum altitude 22:39:22 34° 155° (SSE) 4,457 - -29.4°
Exits shadow 22:47:08 26° 119° (ESE) 4,689 10.1 -29.8°
Drops below altitude 10° 22:54:06 10° 99° (E) 5,497 10.6 -30.2°
Sets 22:58:20 0° 91° (E) 6,188 11.0 -30.4°
